N4RCT Weather Reports


Display with metric or nautical units.
time (UTC)temp
F
wind
direction
speed
MPH
gust
MPH
rain 1hr
in
rain 24hr
in
rain mn
in
humidity
%
barometer
mb
20260508082436 50 116 0.0 0.0 0.00 0.00 0.00 99 1014.7
20260508081934 50 121 0.0 0.0 0.00 0.00 0.00 99 1014.4
20260508081430 50 118 0.0 0.0 0.00 0.00 0.00 99 1014.4
20260508080926 50 120 0.0 0.0 0.00 0.00 0.00 99 1014.5
20260508080425 50 114 0.0 0.0 0.00 0.00 0.00 99 1014.5
20260508075921 50 121 0.0 0.0 0.00 0.00 0.00 99 1014.3
20260508075419 50 123 0.0 0.0 0.00 0.00 0.00 99 1014.4
20260508074916 50 123 0.0 0.0 0.00 0.00 0.00 99 1014.4
20260508074408 50 123 0.0 0.0 0.00 0.00 0.00 99 1014.4
20260508073904 50 121 0.0 0.0 0.00 0.00 0.00 99 1014.4
20260508073402 50 120 0.0 0.0 0.00 0.00 0.00 99 1014.5
20260508072859 50 120 0.0 0.0 0.00 0.00 0.00 99 1014.3
20260508072355 50 113 0.0 0.0 0.00 0.00 0.00 99 1014.4
20260508071852 50 113 0.0 0.0 0.00 0.00 0.00 99 1014.4
20260508071351 50 99 0.0 0.0 0.00 0.00 0.00 99 1014.4
20260508070848 51 113 0.0 0.0 0.00 0.00 0.00 99 1014.6
20260508070346 51 119 0.0 0.0 0.00 0.00 0.00 99 1014.6
20260508065843 51 107 0.0 0.0 0.00 0.00 0.00 99 1014.8
20260508065341 51 109 0.0 0.0 0.00 0.00 0.00 99 1014.9
20260508064839 51 109 0.0 0.0 0.00 0.00 0.00 99 1014.7
20260508064336 51 104 0.0 0.0 0.00 0.00 0.00 99 1014.5
20260508063834 51 120 0.0 0.0 0.00 0.00 0.00 99 1014.7
20260508063332 52 120 0.0 0.0 0.00 0.00 0.00 99 1015.0
20260508062828 52 120 0.0 0.0 0.00 0.00 0.00 99 1014.8
20260508062326 52 122 0.0 0.0 0.00 0.00 0.00 99 1014.7
20260508061823 52 115 0.0 0.0 0.00 0.00 0.00 99 1014.6
20260508061320 52 122 0.0 0.0 0.00 0.00 0.00 99 1014.8
20260508060817 52 119 0.0 0.0 0.00 0.00 0.00 99 1015.0
20260508060314 52 119 0.0 0.0 0.00 0.00 0.00 99 1015.0
20260508055809 52 121 0.0 0.0 0.00 0.00 0.00 99 1015.0
20260508055307 52 119 0.0 0.0 0.00 0.00 0.00 99 1014.8
20260508054803 53 119 0.0 0.0 0.00 0.00 0.00 99 1015.0
20260508054301 53 121 0.0 0.0 0.00 0.00 0.00 99 1014.8
20260508053757 52 130 0.0 0.0 0.00 0.00 0.00 99 1014.9
20260508053255 52 113 0.0 0.0 0.00 0.00 0.00 99 1014.8
20260508052752 52 102 0.0 0.0 0.00 0.00 0.00 99 1014.8
20260508052249 53 108 0.0 0.0 0.00 0.00 0.00 99 1014.6
20260508051745 53 96 0.0 0.0 0.00 0.00 0.00 99 1014.8
20260508051240 53 106 0.0 0.0 0.00 0.00 0.00 99 1014.8
20260508050737 53 107 0.0 0.0 0.00 0.00 0.00 99 1014.9
20260508050235 54 110 0.0 0.0 0.00 0.00 0.00 99 1015.0
20260508045730 54 116 0.0 0.0 0.00 0.00 0.00 99 1014.8
20260508045228 54 124 0.0 0.0 0.00 0.00 0.00 99 1015.0
20260508044726 54 119 0.0 0.0 0.00 0.00 0.00 99 1014.9
20260508044222 55 123 0.0 0.0 0.00 0.00 0.00 99 1014.9
20260508043718 54 115 0.0 0.0 0.00 0.00 0.00 99 1014.9
20260508043216 55 115 0.0 0.0 0.00 0.00 0.00 99 1014.8
20260508042712 55 119 0.0 0.0 0.00 0.00 0.00 99 1014.8
20260508042210 54 124 0.0 0.0 0.00 0.00 0.00 99 1014.8
20260508041706 54 118 0.0 0.0 0.00 0.00 0.00 99 1014.8
20260508041203 54 119 0.0 0.0 0.00 0.00 0.00 99 1014.9
20260508040659 54 112 0.0 0.0 0.00 0.00 0.00 99 1014.8
20260508040157 55 102 0.0 0.0 0.00 0.00 0.00 99 1014.6
20260508035654 55 102 0.0 0.0 0.00 1.21 1.21 99 1014.7
20260508035151 55 120 0.0 0.0 0.00 1.21 1.21 99 1014.8
20260508034648 55 123 0.0 0.0 0.00 1.21 1.21 99 1015.1
20260508034145 55 136 0.0 0.0 0.00 1.21 1.21 99 1014.9
20260508033642 55 108 0.0 0.0 0.00 1.21 1.21 99 1014.7
20260508033141 55 114 0.0 0.0 0.00 1.21 1.21 99 1014.8
20260508032637 55 119 0.0 0.0 0.00 1.21 1.21 99 1015.0
20260508032134 55 109 0.0 0.0 0.00 1.21 1.21 99 1014.8
20260508031631 55 100 0.0 0.0 0.00 1.21 1.21 99 1014.6
20260508031127 55 100 0.0 0.0 0.00 1.21 1.21 99 1014.8
20260508030624 55 100 0.0 0.0 0.00 1.21 1.21 99 1014.6
20260508030122 56 102 0.0 0.0 0.00 1.21 1.21 98 1014.4
20260508025618 56 118 0.0 0.0 0.00 1.21 1.21 98 1014.4
20260508025115 56 123 0.0 0.0 0.00 1.21 1.21 98 1014.3
20260508024611 56 100 0.0 0.0 0.00 1.21 1.21 98 1014.2
20260508024108 56 101 0.0 0.0 0.00 1.21 1.21 98 1014.1
20260508023604 56 100 0.0 0.0 0.00 1.21 1.21 98 1014.6
20260508023102 56 100 0.0 0.0 0.00 1.21 1.21 98 1014.4
20260508022558 56 100 0.0 0.0 0.00 1.21 1.21 98 1014.4
20260508022055 57 100 0.0 0.0 0.00 1.21 1.21 98 1014.2
20260508021550 57 104 0.0 0.0 0.00 1.21 1.21 98 1014.4
20260508021047 57 107 0.0 0.0 0.00 1.21 1.21 98 1014.4
20260508020544 57 111 0.0 0.0 0.00 1.21 1.21 98 1014.4
20260508020042 57 122 0.0 0.0 0.00 1.21 1.21 98 1014.3
20260508015539 57 118 0.0 0.0 0.00 1.21 1.21 98 1014.1
20260508015036 58 116 0.0 0.0 0.00 1.21 1.21 98 1014.1
20260508014532 58 107 0.0 0.0 0.00 1.21 1.21 97 1013.9
20260508014029 57 106 0.0 0.0 0.00 1.21 1.21 96 1014.0
20260508013525 58 106 0.0 0.0 0.00 1.21 1.21 96 1013.9
20260508013022 58 120 0.0 0.0 0.00 1.21 1.21 96 1013.9
20260508012519 58 121 0.0 0.0 0.00 1.21 1.21 96 1013.7
20260508012017 58 121 0.0 0.0 0.00 1.21 1.21 97 1013.5
20260508011515 58 121 0.0 0.0 0.00 1.21 1.21 97 1013.6
20260508011012 58 121 0.0 0.0 0.00 1.21 1.21 97 1013.6
20260508010509 59 121 0.0 0.0 0.00 1.21 1.21 97 1013.3
20260508010006 59 123 0.0 0.0 0.00 1.21 1.21 97 1013.5
20260508005503 59 131 0.0 0.0 0.00 1.21 1.21 97 1013.5
20260508005000 59 135 0.0 0.0 0.00 1.21 1.21 96 1013.2
20260508004455 60 123 0.0 0.0 0.00 1.21 1.21 96 1013.3
20260508003952 60 123 0.0 0.0 0.00 1.21 1.21 96 1013.0
20260508003449 60 136 0.0 0.0 0.00 1.21 1.21 96 1013.2
20260508002946 61 136 0.0 0.0 0.00 1.21 1.21 95 1013.3
20260508002442 61 136 0.0 0.0 0.00 1.21 1.21 94 1013.5
20260508001938 61 130 0.0 0.0 0.00 1.21 1.21 92 1013.1
20260508001435 62 129 0.0 0.0 0.00 1.21 1.21 91 1013.1
20260508000931 62 129 0.0 0.0 0.00 1.21 1.21 90 1013.2
20260508000427 62 129 0.0 0.0 0.00 1.21 1.21 89 1013.1
20260507235924 62 128 0.0 0.0 0.00 1.21 1.21 89 1012.9
20260507235421 62 130 0.0 0.0 0.00 1.21 1.21 89 1012.8
20260507234919 63 128 0.0 0.0 0.00 1.21 1.21 89 1012.8
20260507234415 63 120 0.0 0.0 0.00 1.21 1.21 88 1012.7
20260507233911 64 120 0.0 0.0 0.00 1.21 1.21 89 1012.7
20260507233409 64 120 0.0 0.0 0.00 1.21 1.21 89 1012.7
20260507232908 64 118 0.0 0.0 0.00 1.21 1.21 89 1012.8
20260507232403 64 119 0.0 0.0 0.00 1.21 1.21 89 1012.6
20260507231901 64 120 0.0 0.0 0.00 1.21 1.21 89 1012.9
20260507231357 65 120 0.0 0.0 0.00 1.21 1.21 88 1012.9
20260507230853 65 117 0.0 0.0 0.00 1.21 1.21 86 1012.8
20260507230351 65 118 0.0 0.0 0.00 1.21 1.21 87 1012.8
20260507225850 65 124 0.0 0.0 0.00 1.21 1.21 88 1012.7
20260507225347 65 120 0.0 0.0 0.00 1.21 1.21 86 1012.8
20260507224843 65 119 0.0 0.0 0.00 1.21 1.21 86 1012.6
20260507224340 65 125 0.0 0.0 0.00 1.21 1.21 87 1012.8
20260507223836 65 133 0.0 0.0 0.00 1.21 1.21 84 1012.6
20260507223332 66 153 0.0 0.0 0.00 1.21 1.21 86 1012.7
20260507222830 66 122 0.0 0.0 0.00 1.21 1.21 84 1012.6
20260507222326 66 123 0.0 0.0 0.00 1.21 1.21 84 1012.5
20260507221823 66 120 0.0 0.0 0.00 1.21 1.21 85 1012.5
20260507221319 66 119 0.0 0.0 0.00 1.21 1.21 83 1012.4
20260507220815 66 131 0.0 0.0 0.00 1.21 1.21 86 1012.3
20260507220314 67 110 0.0 0.0 0.00 1.21 1.21 82 1012.2
20260507215810 67 101 0.0 0.0 0.00 1.21 1.21 81 1012.4
20260507215307 67 98 0.0 1.0 0.00 1.21 1.21 80 1012.5
20260507214804 67 108 0.0 0.0 0.00 1.21 1.21 82 1012.3
20260507214302 67 119 0.0 0.0 0.00 1.21 1.21 84 1012.2
20260507213756 67 97 2.0 2.0 0.00 1.21 1.21 83 1012.2
20260507213254 67 144 0.0 1.0 0.00 1.21 1.21 84 1012.2
20260507212750 68 147 0.0 0.0 0.00 1.21 1.21 81 1012.2
20260507212247 68 103 0.0 0.0 0.00 1.21 1.21 81 1012.1
20260507211743 68 100 0.0 0.0 0.00 1.21 1.21 80 1012.2
20260507211240 67 156 0.0 0.0 0.00 1.21 1.21 81 1012.0
20260507210737 67 170 0.0 0.0 0.00 1.21 1.21 84 1012.0
20260507210234 67 120 1.0 1.0 0.00 1.21 1.21 83 1011.9
20260507205730 67 66 0.0 1.0 0.00 1.21 1.21 82 1011.8
20260507205227 67 160 1.0 1.0 0.00 1.21 1.21 83 1011.9
20260507204723 67 148 0.0 0.0 0.00 1.21 1.21 84 1011.9
20260507204221 67 62 1.0 1.0 0.00 1.21 1.21 84 1011.9
20260507203719 68 117 0.0 0.0 0.00 1.21 1.21 82 1012.1
20260507203216 68 111 0.0 0.0 0.00 1.21 1.21 82 1012.0
20260507202712 67 91 0.0 0.0 0.00 1.21 1.21 82 1012.0
20260507202208 67 120 0.0 0.0 0.00 1.21 1.21 83 1011.7
20260507201703 67 130 0.0 0.0 0.00 1.21 1.21 81 1011.8
20260507201200 67 89 1.0 1.0 0.00 1.21 1.21 80 1011.9
20260507200656 67 50 1.0 1.0 0.00 1.21 1.21 79 1011.9
20260507200152 67 63 0.0 1.0 0.00 1.21 1.21 79 1012.0
20260507195649 67 105 0.0 0.0 0.00 1.21 1.21 78 1012.0
20260507195146 67 96 0.0 0.0 0.00 1.21 1.21 79 1012.3
20260507194643 68 32 1.0 1.0 0.00 1.21 1.21 78 1012.2
20260507194138 67 122 0.0 0.0 0.00 1.21 1.21 79 1012.2
20260507193636 67 63 1.0 2.0 0.00 1.21 1.21 81 1012.4
20260507193133 68 173 3.0 3.0 0.00 1.21 1.21 78 1011.9
20260507192629 68 118 2.0 2.0 0.00 1.21 1.21 82 1012.1
20260507192126 68 154 2.0 2.0 0.00 1.21 1.21 80 1012.2
20260507191621 68 201 2.0 3.0 0.00 1.21 1.21 82 1012.5
20260507191118 68 138 1.0 1.0 0.00 1.21 1.21 83 1012.3
20260507190616 67 182 1.0 1.0 0.00 1.21 1.21 84 1012.4
20260507190115 67 124 0.0 0.0 0.00 1.21 1.21 86 1012.4
20260507185613 66 157 0.0 1.0 0.00 1.21 1.21 81 1012.5
20260507185109 67 181 3.0 3.0 0.00 1.21 1.21 85 1012.4
20260507184607 67 173 2.0 3.0 0.00 1.21 1.21 85 1012.4
20260507184104 67 176 0.0 1.0 0.00 1.21 1.21 84 1012.5
20260507183600 67 56 1.0 1.0 0.00 1.21 1.21 84 1012.2
20260507183058 67 148 0.0 1.0 0.00 1.21 1.21 84 1012.5
20260507182554 67 100 0.0 0.0 0.00 1.21 1.21 85 1012.6
20260507182050 65 97 0.0 0.0 0.00 1.21 1.21 86 1012.7
20260507181547 64 61 1.0 1.0 0.00 1.21 1.21 86 1013.0
20260507181043 64 34 1.0 2.0 0.00 1.21 1.21 86 1012.8
20260507180539 64 126 0.0 0.0 0.00 1.21 1.21 88 1012.9
20260507180037 64 148 0.0 0.0 0.00 1.21 1.21 88 1012.9
20260507175532 64 39 0.0 1.0 0.00 1.21 1.21 86 1013.1
20260507175031 63 86 1.0 1.0 0.00 1.21 1.21 89 1013.2
20260507174527 63 151 0.0 1.0 0.00 1.21 1.21 90 1013.5
20260507174025 62 134 0.0 0.0 0.00 1.21 1.21 90 1013.3
20260507173522 63 89 1.0 2.0 0.00 1.21 1.21 90 1013.2
20260507173019 65 185 3.0 3.0 0.00 1.21 1.21 89 1012.9
20260507172515 64 159 1.0 2.0 0.00 1.21 1.21 88 1012.7
20260507172012 62 122 0.0 1.0 0.00 1.21 1.21 92 1012.7
20260507171507 61 72 0.0 0.0 0.00 1.21 1.21 93 1012.9
20260507171005 60 81 0.0 1.0 0.00 1.21 1.21 94 1012.8
20260507170502 60 57 0.0 1.0 0.00 1.21 1.21 94 1013.0
20260507165958 61 87 2.0 2.0 0.00 1.21 1.21 94 1013.0
20260507165454 61 74 2.0 2.0 0.00 1.21 1.21 95 1013.2
20260507164950 61 60 0.0 1.0 0.00 1.21 1.21 94 1013.1
20260507164447 61 110 0.0 0.0 0.00 1.21 1.21 95 1013.0
20260507163944 61 351 1.0 2.0 0.00 1.21 1.21 94 1012.9
20260507163441 61 159 0.0 0.0 0.00 1.21 1.21 95 1013.0
20260507162938 62 204 1.0 1.0 0.00 1.21 1.21 94 1013.1
20260507162433 62 162 0.0 0.0 0.00 1.21 1.21 94 1013.1
20260507161931 63 150 0.0 0.0 0.00 1.21 1.21 93 1013.0
20260507161428 63 75 0.0 0.0 0.00 1.21 1.21 92 1012.8
20260507160924 64 105 1.0 1.0 0.00 1.21 1.21 91 1012.5
20260507160420 64 136 0.0 0.0 0.00 1.21 1.21 93 1012.4
20260507155916 65 171 1.0 1.0 0.00 1.21 1.21 93 1012.3
20260507155412 65 151 0.0 1.0 0.00 1.21 1.21 94 1012.2
20260507154909 64 151 0.0 1.0 0.00 1.21 1.21 96 1012.1
20260507154406 64 24 1.0 2.0 0.00 1.21 1.21 95 1012.2
20260507153953 63 107 0.0 0.0 0.00 1.21 1.21 96 1012.4
20260507153903 63 107 0.0 0.0 0.00 1.21 1.21 96 1012.4
20260507153627 63 154 0.0 0.0 0.00 1.21 1.21 97 1012.4
20260507153359 63 154 0.0 0.0 0.00 1.21 1.21 97 1012.4
20260507152856 63 129 1.0 1.0 0.00 1.21 1.21 98 1012.2
20260507152732 63 112 2.0 2.0 0.00 1.21 1.21 98 1012.2
20260507152352 62 122 0.0 0.0 0.00 1.21 1.21 98 1012.3
20260507151848 63 112 2.0 2.0 0.00 1.21 1.21 98 1012.2
20260507151344 63 66 0.0 1.0 0.00 1.21 1.21 99 1012.1
20260507150842 63 58 1.0 2.0 0.00 1.21 1.21 99 1012.0
20260507150338 62 80 1.0 2.0 0.00 1.21 1.21 99 1011.7
20260507145834 62 145 0.0 0.0 0.00 1.21 1.21 99 1011.6
20260507145331 62 70 0.0 1.0 0.00 1.21 1.21 99 1011.9
20260507144828 62 106 1.0 2.0 0.00 1.21 1.21 99 1011.7
20260507144320 62 46 3.0 5.0 0.00 1.21 1.21 99 1011.6
20260507143816 62 105 0.0 0.0 0.00 1.21 1.21 99 1012.0
20260507143314 63 153 0.0 0.0 0.00 1.21 1.21 99 1012.0
20260507142809 62 132 0.0 0.0 0.00 1.21 1.21 99 1011.6
20260507142307 62 120 0.0 0.0 0.00 1.21 1.21 99 1011.6
20260507141803 62 102 0.0 0.0 0.00 1.21 1.21 99 1011.7
20260507141300 63 141 0.0 0.0 0.00 1.21 1.21 99 1011.9
20260507140756 63 213 1.0 2.0 0.00 1.21 1.21 99 1011.9
20260507140253 63 116 0.0 0.0 0.00 1.21 1.21 99 1012.0
20260507135750 63 133 0.0 0.0 0.00 1.21 1.21 99 1011.9
20260507135248 63 112 0.0 0.0 0.00 1.21 1.21 99 1011.8
20260507134744 63 158 0.0 0.0 0.00 1.21 1.21 99 1011.8
20260507134241 64 117 0.0 0.0 0.00 1.21 1.21 99 1011.8
20260507133736 64 130 0.0 0.0 0.00 1.21 1.21 99 1011.8
20260507133233 64 123 0.0 0.0 0.00 1.21 1.21 99 1011.7
20260507132731 63 107 0.0 0.0 0.00 1.21 1.21 99 1011.9
20260507132227 63 137 0.0 0.0 0.00 1.21 1.21 99 1011.7
20260507131724 64 116 0.0 0.0 0.00 1.21 1.21 99 1011.9
20260507131221 64 137 0.0 0.0 0.00 1.21 1.21 99 1011.7
20260507130718 64 88 0.0 0.0 0.00 1.21 1.21 99 1011.4
20260507130216 64 106 0.0 0.0 0.00 1.21 1.21 99 1011.4
20260507125714 64 118 0.0 0.0 0.00 1.21 1.21 99 1011.4
20260507125212 63 103 0.0 0.0 0.00 1.21 1.21 99 1011.1
20260507124708 63 85 0.0 0.0 0.00 1.21 1.21 99 1010.9
20260507124205 63 109 0.0 0.0 0.00 1.21 1.21 99 1010.6
20260507123703 63 99 0.0 0.0 0.00 1.21 1.21 99 1010.7
20260507123200 63 99 0.0 0.0 0.00 1.21 1.21 99 1010.6
20260507122655 63 101 0.0 0.0 0.00 1.21 1.21 99 1010.3
20260507122151 63 135 0.0 0.0 0.00 1.21 1.21 99 1010.4
20260507121648 63 131 0.0 0.0 0.00 1.21 1.21 99 1010.4
20260507121144 63 102 0.0 0.0 0.00 1.21 1.21 99 1010.2
20260507120640 63 99 0.0 0.0 0.00 1.21 1.21 99 1010.0
20260507120137 63 111 0.0 0.0 0.07 1.21 1.21 99 1010.4
20260507115633 63 114 0.0 0.0 0.12 1.21 1.21 99 1010.2
20260507115129 63 115 0.0 0.0 0.17 1.20 1.20 99 1010.0
20260507114625 63 89 1.0 1.0 0.31 1.19 1.19 99 1010.4
20260507114122 63 137 0.0 0.0 0.38 1.17 1.17 99 1010.8
20260507113620 63 120 0.0 0.0 0.31 1.14 1.14 99 1010.7
20260507113116 63 123 0.0 0.0 0.12 1.11 1.11 99 1010.8
20260507112614 63 122 0.0 0.0 0.05 1.09 1.09 99 1010.9
20260507112111 63 80 0.0 0.0 0.17 1.09 1.09 99 1010.2
20260507111608 63 153 0.0 0.0 0.73 1.08 1.08 99 1010.1
20260507111104 63 93 0.0 1.0 1.04 1.06 1.06 99 1009.8
20260507110601 63 142 0.0 0.0 0.83 0.98 0.98 99 1010.8
20260507110057 63 129 0.0 0.0 0.42 0.90 0.90 99 1010.5
20260507105554 63 116 0.0 0.0 0.19 0.84 0.84 99 1010.5
20260507105050 63 111 0.0 0.0 0.12 0.82 0.82 99 1009.9
20260507104548 63 109 0.0 0.0 0.12 0.82 0.82 99 1009.8
20260507104044 63 85 0.0 0.0 0.00 0.80 0.80 99 1009.9
20260507103540 63 112 0.0 0.0 0.00 0.80 0.80 99 1009.4
20260507103037 63 114 0.0 0.0 0.00 0.80 0.80 99 1009.3
20260507102534 63 149 0.0 0.0 0.00 0.80 0.80 99 1009.2
20260507102031 63 117 0.0 0.0 0.00 0.80 0.80 99 1009.4
20260507101525 63 81 0.0 0.0 0.00 0.80 0.80 99 1009.4
20260507101022 63 111 0.0 0.0 0.07 0.80 0.80 99 1009.4
20260507100520 63 97 0.0 0.0 0.19 0.80 0.80 99 1009.9
20260507100018 63 145 0.0 0.0 0.35 0.79 0.79 99 1009.9
20260507095515 63 85 0.0 1.0 1.02 0.77 0.77 99 1009.7
20260507095011 64 122 0.0 0.0 0.83 0.74 0.74 99 1010.3
20260507094508 63 81 1.0 1.0 0.05 0.61 0.61 99 1011.0
20260507094005 63 110 0.0 0.0 0.00 0.60 0.60 99 1010.4
20260507093502 63 100 0.0 0.0 0.07 0.60 0.60 99 1009.8
20260507093001 63 131 0.0 0.0 0.19 0.60 0.60 99 1009.4
20260507092456 63 113 0.0 0.0 0.12 0.59 0.59 99 1009.7
20260507091954 63 99 0.0 0.0 0.00 0.57 0.57 99 1009.5
20260507091450 63 143 0.0 0.0 0.00 0.57 0.57 99 1009.7
20260507090946 63 111 0.0 0.0 0.00 0.57 0.57 99 1009.4
20260507090442 63 105 0.0 0.0 0.00 0.57 0.57 99 1009.7
20260507085939 63 83 0.0 0.0 0.00 0.57 0.57 99 1009.9
20260507085436 63 116 0.0 0.0 0.00 0.57 0.57 99 1009.8
20260507084933 63 120 0.0 0.0 0.00 0.57 0.57 99 1009.6
20260507084430 63 133 0.0 0.0 0.00 0.57 0.57 99 1009.7
20260507083927 63 115 0.0 0.0 0.00 0.57 0.57 99 1009.7
20260507083423 63 98 0.0 0.0 0.00 0.57 0.57 99 1009.5
20260507082920 63 87 0.0 0.0 0.05 0.57 0.57 99 1009.5